When you browse on this site, cookies collect data to enhance your experience and personalize the content and advertising you see.
Visit our Privacy Policy to learn more. By continuing to use the site, you agree to this use of cookies and data.
  • en Suisse
  • Liste des pays
  • À 7 jours
  • Température de l'eau
  • Carte satellitaire
  • Carte météo
  • Widgets météo
  • user-avatar
    Se connecter

    Météo par heure à Malaya Kamenka

    Ce jour, 24 Janvier, Jeudi

    Heure Température Précipitation Vent Pression Humidité
    00:00 -13°C° 0 mm 2 m/s 743 mmHg 97%
    01:00 -13°C° 0 mm 2 m/s 743 mmHg 97%
    02:00 -13°C° 0 mm 2 m/s 743 mmHg 97%
    03:00 -14°C° 0 mm 2 m/s 743 mmHg 97%
    04:00 -14°C° 0 mm 2 m/s 743 mmHg 97%
    05:00 -14°C° 0 mm 2 m/s 743 mmHg 97%
    06:00 -14°C° 0 mm 2 m/s 743 mmHg 97%
    07:00 -15°C° 0 mm 2 m/s 744 mmHg 97%
    08:00 -15°C° 0 mm 2 m/s 744 mmHg 98%
    09:00 -15°C° 0 mm 2 m/s 744 mmHg 97%
    10:00 -14°C° 0 mm 2 m/s 745 mmHg 96%
    11:00 -14°C° 0 mm 2 m/s 745 mmHg 95%
    12:00 -13°C° 0 mm 2 m/s 745 mmHg 94%
    13:00 -13°C° 0 mm 2 m/s 745 mmHg 94%
    14:00 -13°C° 0 mm 2 m/s 746 mmHg 93%
    15:00 -14°C° 0 mm 2 m/s 746 mmHg 93%
    16:00 -15°C° 0 mm 2 m/s 746 mmHg 94%
    17:00 -16°C° 0 mm 2 m/s 746 mmHg 94%
    18:00 -16°C° 0 mm 2 m/s 747 mmHg 93%
    19:00 -16°C° 0 mm 2 m/s 747 mmHg 93%
    20:00 -17°C° 0 mm 2 m/s 747 mmHg 93%
    21:00 -17°C° 0 mm 2 m/s 747 mmHg 92%
    22:00 -17°C° 0 mm 2 m/s 748 mmHg 92%
    23:00 -17°C° 0 mm 2 m/s 748 mmHg 92%

    Demain, 25 Janvier, Vendredi

    Heure Température Précipitation Vent Pression Humidité
    00:00 -17°C° 0 mm 2 m/s 748 mmHg 92%
    01:00 -18°C° 0 mm 2 m/s 748 mmHg 93%
    02:00 -18°C° 0 mm 2 m/s 748 mmHg 94%
    03:00 -18°C° 0 mm 2 m/s 748 mmHg 95%
    04:00 -18°C° 0 mm 2 m/s 748 mmHg 96%
    05:00 -18°C° 0 mm 2 m/s 748 mmHg 96%
    06:00 -17°C° 0 mm 2 m/s 748 mmHg 97%
    07:00 -18°C° 0 mm 3 m/s 749 mmHg 97%
    08:00 -18°C° 0 mm 3 m/s 749 mmHg 97%
    09:00 -17°C° 0 mm 3 m/s 749 mmHg 97%
    10:00 -16°C° 0 mm 3 m/s 749 mmHg 96%
    11:00 -16°C° 0 mm 4 m/s 749 mmHg 95%
    12:00 -15°C° 0 mm 4 m/s 748 mmHg 95%
    13:00 -15°C° 0 mm 4 m/s 748 mmHg 94%
    14:00 -14°C° 0 mm 4 m/s 748 mmHg 94%
    15:00 -14°C° 0 mm 4 m/s 748 mmHg 94%
    16:00 -14°C° 0 mm 4 m/s 747 mmHg 94%
    17:00 -15°C° 0 mm 4 m/s 747 mmHg 94%
    18:00 -15°C° 0 mm 4 m/s 747 mmHg 94%
    19:00 -15°C° 0 mm 4 m/s 746 mmHg 93%
    20:00 -15°C° 0 mm 4 m/s 746 mmHg 93%
    21:00 -15°C° 0.1 mm 4 m/s 746 mmHg 93%
    22:00 -15°C° 0.1 mm 5 m/s 745 mmHg 93%
    23:00 -15°C° 0.1 mm 5 m/s 745 mmHg 93%

    Après-demain, 26 Janvier, Samedi

    Heure Température Précipitation Vent Pression Humidité
    00:00 -16°C° 0.6 mm 4 m/s 744 mmHg 94%
    01:00 -16°C° 0.6 mm 4 m/s 744 mmHg 95%
    02:00 -16°C° 0.6 mm 4 m/s 743 mmHg 96%
    03:00 -15°C° 0.7 mm 3 m/s 742 mmHg 96%
    04:00 -15°C° 0.7 mm 3 m/s 742 mmHg 96%
    05:00 -15°C° 0.7 mm 3 m/s 741 mmHg 96%
    06:00 -15°C° 0.3 mm 3 m/s 741 mmHg 96%
    07:00 -13°C° 0.3 mm 2 m/s 740 mmHg 96%
    08:00 -13°C° 0.3 mm 2 m/s 740 mmHg 96%
    09:00 -12°C° 0.2 mm 2 m/s 740 mmHg 96%
    10:00 -12°C° 0.2 mm 2 m/s 739 mmHg 95%
    11:00 -10°C° 0.2 mm 2 m/s 739 mmHg 94%
    12:00 -12°C° 0.1 mm 3 m/s 738 mmHg 93%
    13:00 -10°C° 0.1 mm 3 m/s 738 mmHg 92%
    14:00 -10°C° 0.1 mm 3 m/s 737 mmHg 91%
    15:00 -9°C° 0 mm 2 m/s 737 mmHg 92%
    16:00 -10°C° 0 mm 2 m/s 737 mmHg 93%
    17:00 -10°C° 0 mm 2 m/s 736 mmHg 94%
    18:00 -10°C° 0.1 mm 2 m/s 736 mmHg 95%
    19:00 -10°C° 0.1 mm 2 m/s 736 mmHg 96%
    20:00 -10°C° 0.1 mm 2 m/s 736 mmHg 96%
    21:00 -10°C° 0.3 mm 2 m/s 736 mmHg 97%
    22:00 -10°C° 0.3 mm 2 m/s 735 mmHg 97%
    23:00 -8°C° 0.3 mm 1 m/s 735 mmHg 97%

    27 Janvier, Dimanche

    Heure Température Précipitation Vent Pression Humidité
    00:00 -9°C° 0 mm 1 m/s 735 mmHg 97%
    01:00 -10°C° 0 mm 1 m/s 735 mmHg 97%
    02:00 -10°C° 0 mm 1 m/s 735 mmHg 96%
    03:00 -13°C° 0 mm 2 m/s 735 mmHg 96%
    04:00 -13°C° 0 mm 2 m/s 735 mmHg 96%
    05:00 -13°C° 0 mm 2 m/s 736 mmHg 96%
    06:00 -14°C° 0 mm 2 m/s 736 mmHg 97%
    07:00 -15°C° 0 mm 2 m/s 736 mmHg 97%
    08:00 -16°C° 0 mm 2 m/s 736 mmHg 97%
    09:00 -16°C° 0 mm 2 m/s 737 mmHg 97%
    10:00 -15°C° 0 mm 2 m/s 737 mmHg 96%
    11:00 -15°C° 0 mm 2 m/s 737 mmHg 95%
    12:00 -13°C° 0 mm 1 m/s 737 mmHg 94%
    13:00 -12°C° 0 mm 1 m/s 737 mmHg 92%
    14:00 -12°C° 0 mm 1 m/s 737 mmHg 91%
    15:00 -13°C° 0 mm 1 m/s 737 mmHg 92%
    16:00 -15°C° 0 mm 0 m/s 737 mmHg 94%
    17:00 -16°C° 0 mm 0 m/s 737 mmHg 96%
    18:00 -16°C° 0 mm 0 m/s 738 mmHg 95%
    19:00 -16°C° 0 mm 1 m/s 738 mmHg 95%
    20:00 -17°C° 0 mm 1 m/s 738 mmHg 94%
    21:00 -17°C° 0 mm 1 m/s 738 mmHg 94%
    22:00 -19°C° 0 mm 2 m/s 738 mmHg 95%
    23:00 -19°C° 0 mm 2 m/s 738 mmHg 95%

    28 Janvier, Lundi

    Heure Température Précipitation Vent Pression Humidité
    00:00 -18°C° 0 mm 2 m/s 738 mmHg 95%
    01:00 -18°C° 0 mm 3 m/s 738 mmHg 95%
    02:00 -17°C° 0 mm 3 m/s 738 mmHg 94%
    03:00 -16°C° 0.1 mm 3 m/s 737 mmHg 95%
    04:00 -16°C° 0.1 mm 4 m/s 737 mmHg 95%
    05:00 -16°C° 0.1 mm 4 m/s 736 mmHg 96%
    06:00 -15°C° 0.2 mm 4 m/s 736 mmHg 96%
    07:00 -15°C° 0.2 mm 4 m/s 736 mmHg 96%
    08:00 -14°C° 0.2 mm 4 m/s 736 mmHg 96%
    09:00 -13°C° 0.2 mm 5 m/s 736 mmHg 96%
    10:00 -12°C° 0.2 mm 5 m/s 736 mmHg 96%
    11:00 -10°C° 0.2 mm 5 m/s 735 mmHg 96%
    12:00 -8°C° 0.2 mm 5 m/s 735 mmHg 95%
    13:00 -7°C° 0.2 mm 5 m/s 735 mmHg 94%
    14:00 -6°C° 0.2 mm 5 m/s 734 mmHg 94%
    15:00 -5°C° 0 mm 5 m/s 734 mmHg 93%
    16:00 -5°C° 0 mm 5 m/s 734 mmHg 93%
    17:00 -4°C° 0 mm 5 m/s 734 mmHg 93%
    18:00 -4°C° 0 mm 5 m/s 734 mmHg 93%
    19:00 -4°C° 0 mm 5 m/s 734 mmHg 92%
    20:00 -4°C° 0 mm 5 m/s 734 mmHg 92%
    21:00 -4°C° 0 mm 5 m/s 735 mmHg 92%
    22:00 -5°C° 0 mm 5 m/s 735 mmHg 93%
    23:00 -5°C° 0 mm 5 m/s 735 mmHg 94%

    29 Janvier, Mardi

    Heure Température Précipitation Vent Pression Humidité
    00:00 -4°C° 0 mm 4 m/s 735 mmHg 94%
    01:00 -5°C° 0 mm 4 m/s 735 mmHg 95%
    02:00 -5°C° 0 mm 4 m/s 735 mmHg 95%
    03:00 -5°C° 0 mm 4 m/s 735 mmHg 95%
    04:00 -5°C° 0 mm 4 m/s 735 mmHg 95%
    05:00 -5°C° 0 mm 4 m/s 735 mmHg 94%
    06:00 -5°C° 0 mm 4 m/s 735 mmHg 95%
    07:00 -7°C° 0 mm 4 m/s 735 mmHg 96%
    08:00 -7°C° 0 mm 4 m/s 735 mmHg 96%
    09:00 -7°C° 0 mm 4 m/s 735 mmHg 96%
    10:00 -7°C° 0 mm 4 m/s 736 mmHg 95%
    11:00 -5°C° 0 mm 4 m/s 736 mmHg 95%
    12:00 -5°C° 0.1 mm 4 m/s 736 mmHg 95%
    13:00 -4°C° 0.1 mm 3 m/s 736 mmHg 95%
    14:00 -2°C° 0.1 mm 3 m/s 736 mmHg 95%
    15:00 -2°C° 0.2 mm 3 m/s 736 mmHg 96%
    16:00 -2°C° 0.2 mm 2 m/s 736 mmHg 96%
    17:00 -2°C° 0.2 mm 2 m/s 736 mmHg 97%
    18:00 -2°C° 0.2 mm 2 m/s 736 mmHg 97%
    19:00 -2°C° 0.2 mm 2 m/s 736 mmHg 97%
    20:00 -1°C° 0.2 mm 2 m/s 736 mmHg 98%
    21:00 -1°C° 0.1 mm 2 m/s 736 mmHg 97%
    22:00 -1°C° 0.1 mm 2 m/s 736 mmHg 97%
    23:00 -1°C° 0.1 mm 2 m/s 737 mmHg 97%
    Voir plus